Asbest, Russia
Current Conditions -  °F | °C
As of 2:30 AM on Saturday 01 Nov 2014 (Local Time) from USSS Reporting Station
Overcast Overcast  
Wind Chill: 29°   Ceiling: 1700
Heat Index: 37°   Visibility: 6mi
Dew Point: 36°   Wind: 13mph
Humidity: 93%   Direction: 240°WSW
Pressure: 29.91"   Gusts: NA
Location:  57.02°N, 61.46°E
Report Text: USSS 312130Z 24006MPS 9999 OVC017 03/02 Q1013 7629//40 NOSIGRMK QFE739
Loading
Personal Weather Stations






























Interactive Weather Map
Tropical Storm Tracking
New forecast layout! Learn more

10-Day Weather Forecast

Advertisements
Track Severe Weather on mobile